Total_Precipitation_Accumulation
0.78 0.62 0.53 0.53 0.53 0.49 0.55 0.79 1.27 1.79 2.23 2.51 2.68 2.69 2.64 2.46 2.24 2.22 2.28 2.26 2.13 2.03 1.93 1.76 1.64 1.66 1.65 1.62 1.57 1.60 1.66 1.74 1.80 1.75 1.69 1.70 1.74 1.61 1.41 1.34 1.30 1.39 1.32 1.26
0.72 0.58 0.56 0.66 0.64 0.66 0.73 0.92 1.20 1.67 2.32 2.38 2.28 2.08 2.11 2.14 2.12 2.19 2.33 2.37 2.25 2.13 2.00 1.80 1.67 1.60 1.57 1.47 1.39 1.45 1.50 1.64 1.72 1.68 1.62 1.56 1.59 1.55 1.48 1.41 1.37 1.34 1.32 1.27
0.94 0.72 0.89 1.32 1.05 1.01 1.11 1.17 1.36 1.79 2.01 1.76 1.78 1.82 1.91 1.95 2.01 2.19 2.32 2.31 2.24 2.20 2.06 1.88 1.78 1.70 1.75 1.57 1.38 1.47 1.52 1.52 1.57 1.62 1.67 1.63 1.57 1.55 1.55 1.56 1.53 1.42 1.28 1.24
0.99 1.19 1.82 1.69 1.08 1.03 1.15 1.27 1.18 1.27 1.32 1.40 1.51 1.63 1.80 1.86 1.98 2.21 2.35 2.43 2.38 2.24 2.06 1.83 1.67 1.60 1.59 1.56 1.46 1.51 1.50 1.43 1.44 1.45 1.49 1.50 1.54 1.56 1.55 1.54 1.50 1.42 1.28 1.23
1.29 1.69 1.93 1.65 1.08 1.02 1.26 1.51 1.17 1.14 1.09 1.18 1.28 1.47 1.90 1.97 2.00 2.16 2.34 2.33 2.27 2.08 1.95 1.86 1.69 1.61 1.53 1.48 1.51 1.45 1.35 1.28 1.24 1.21 1.28 1.31 1.37 1.46 1.56 1.56 1.45 1.32 1.22 1.18
1.48 2.02 2.50 2.10 1.06 0.73 1.10 1.96 1.32 1.05 0.97 1.12 1.33 1.78 1.98 1.80 1.76 1.78 1.82 1.82 1.78 1.70 1.65 1.64 1.53 1.51 1.51 1.49 1.48 1.40 1.27 1.17 1.11 1.14 1.23 1.28 1.31 1.43 1.50 1.54 1.39 1.20 1.12 1.13
1.56 2.05 2.25 1.31 0.79 0.87 1.82 2.25 1.58 1.28 1.13 1.16 1.37 1.55 1.48 1.41 1.48 1.54 1.57 1.63 1.54 1.46 1.53 1.52 1.38 1.40 1.45 1.44 1.37 1.23 1.14 1.13 1.16 1.18 1.27 1.28 1.38 1.48 1.43 1.31 1.29 1.19 1.13 1.13
1.78 2.24 2.33 1.04 0.84 1.43 1.78 1.41 1.36 1.34 1.27 1.22 1.18 1.13 1.16 1.28 1.51 1.60 1.76 1.70 1.59 1.52 1.47 1.42 1.40 1.45 1.48 1.43 1.23 1.12 1.11 1.17 1.23 1.21 1.14 1.12 1.32 1.44 1.39 1.33 1.27 1.22 1.17 1.11
1.90 2.08 1.58 0.94 0.98 1.07 1.16 1.21 1.19 1.21 1.14 1.05 1.10 1.13 1.08 1.21 1.40 1.56 1.70 1.66 1.61 1.53 1.45 1.39 1.37 1.42 1.42 1.28 1.06 1.00 1.10 1.25 1.30 1.24 1.27 1.25 1.25 1.30 1.37 1.38 1.25 1.14 1.11 1.04
1.70 1.60 1.22 0.96 0.86 0.86 0.96 1.06 1.06 1.13 1.10 1.04 1.19 1.22 1.13 1.20 1.36 1.53 1.59 1.44 1.38 1.34 1.30 1.24 1.18 1.15 1.14 1.03 0.98 1.06 1.17 1.26 1.28 1.27 1.34 1.34 1.26 1.11 1.08 1.09 1.06 0.99 0.95 0.88
2.01 1.81 1.46 1.10 0.93 0.94 0.95 1.02 1.10 1.23 1.18 1.13 1.17 1.20 1.18 1.20 1.26 1.30 1.36 1.33 1.25 1.18 1.11 1.01 0.97 0.93 0.87 0.85 0.87 1.01 1.11 1.17 1.18 1.18 1.22 1.28 1.19 1.04 0.96 0.88 0.83 0.81 0.75 0.67
2.38 1.94 1.80 1.38 1.06 1.06 1.11 1.12 1.15 1.16 1.06 0.97 0.97 1.02 1.05 1.05 1.07 1.08 1.14 1.19 1.20 1.08 1.01 0.92 0.88 0.88 0.82 0.78 0.81 0.94 1.01 1.00 0.94 0.97 1.00 1.01 1.04 0.99 0.79 0.63 0.55 0.51 0.51 0.50
1.87 1.52 1.38 1.26 1.12 1.12 1.09 0.93 0.88 0.93 0.91 0.88 0.88 0.91 0.92 0.87 0.86 0.92 0.99 0.99 0.99 0.97 0.86 0.85 0.83 0.81 0.78 0.75 0.75 0.83 0.96 0.93 0.81 0.74 0.81 0.85 0.84 0.93 0.88 0.64 0.44 0.36 0.38 0.42
1.34 1.27 1.22 1.03 0.91 0.81 0.72 0.66 0.65 0.76 0.78 0.71 0.73 0.78 0.80 0.75 0.75 0.80 0.89 0.88 0.85 0.81 0.74 0.77 0.80 0.77 0.71 0.71 0.76 0.77 0.81 0.80 0.75 0.74 0.72 0.70 0.69 0.70 0.74 0.80 0.72 0.55 0.44 0.43
1.02 1.04 0.95 0.74 0.67 0.64 0.58 0.56 0.60 0.66 0.66 0.65 0.62 0.75 0.80 0.72 0.71 0.72 0.79 0.80 0.77 0.74 0.72 0.72 0.76 0.78 0.71 0.71 0.75 0.79 0.81 0.81 0.77 0.71 0.66 0.62 0.59 0.57 0.57 0.64 0.68 0.69 0.63 0.55
0.76 0.73 0.73 0.71 0.71 0.67 0.67 0.64 0.67 0.67 0.67 0.65 0.64 0.70 0.75 0.73 0.67 0.70 0.75 0.74 0.77 0.81 0.77 0.72 0.70 0.64 0.64 0.66 0.68 0.74 0.76 0.75 0.75 0.72 0.60 0.56 0.55 0.56 0.55 0.60 0.63 0.66 0.69 0.69
0.78 0.75 0.74 0.80 0.81 0.83 0.86 0.79 0.72 0.70 0.75 0.73 0.66 0.63 0.65 0.71 0.76 0.81 0.80 0.73 0.74 0.78 0.76 0.74 0.64 0.56 0.56 0.58 0.61 0.62 0.67 0.72 0.73 0.62 0.53 0.50 0.53 0.53 0.51 0.56 0.59 0.61 0.57 0.61
0.78 0.74 0.69 0.76 0.78 0.79 0.80 0.74 0.68 0.67 0.75 0.72 0.61 0.62 0.71 0.77 0.79 0.80 0.77 0.72 0.74 0.77 0.73 0.68 0.60 0.54 0.53 0.54 0.58 0.56 0.60 0.64 0.63 0.56 0.52 0.47 0.47 0.49 0.50 0.52 0.56 0.61 0.59 0.59
0.70 0.67 0.59 0.61 0.65 0.68 0.69 0.70 0.69 0.59 0.60 0.62 0.60 0.63 0.69 0.77 0.77 0.76 0.77 0.78 0.82 0.84 0.74 0.61 0.56 0.55 0.58 0.60 0.59 0.56 0.58 0.59 0.62 0.60 0.56 0.51 0.49 0.49 0.51 0.55 0.56 0.59 0.62 0.64
0.59 0.59 0.58 0.57 0.59 0.65 0.70 0.69 0.65 0.58 0.57 0.62 0.64 0.68 0.73 0.74 0.73 0.76 0.79 0.84 0.84 0.71 0.63 0.59 0.56 0.55 0.56 0.64 0.67 0.60 0.59 0.56 0.56 0.58 0.60 0.61 0.61 0.58 0.52 0.49 0.49 0.52 0.56 0.57
0.56 0.56 0.56 0.58 0.60 0.61 0.62 0.61 0.61 0.61 0.60 0.65 0.72 0.82 0.84 0.77 0.71 0.74 0.77 0.81 0.79 0.70 0.63 0.60 0.56 0.58 0.56 0.61 0.65 0.60 0.56 0.58 0.56 0.50 0.48 0.51 0.57 0.57 0.55 0.53 0.50 0.47 0.49 0.52
0.61 0.59 0.53 0.53 0.55 0.56 0.57 0.59 0.62 0.59 0.58 0.63 0.72 0.81 0.88 0.82 0.75 0.73 0.69 0.72 0.71 0.67 0.66 0.60 0.55 0.56 0.56 0.57 0.58 0.58 0.51 0.52 0.55 0.49 0.43 0.42 0.42 0.43 0.44 0.48 0.52 0.53 0.51 0.53
0.65 0.60 0.53 0.51 0.52 0.53 0.50 0.49 0.54 0.59 0.60 0.64 0.70 0.75 0.79 0.74 0.70 0.71 0.70 0.66 0.65 0.65 0.61 0.60 0.63 0.58 0.49 0.47 0.54 0.57 0.55 0.54 0.52 0.48 0.42 0.39 0.39 0.40 0.41 0.41 0.43 0.44 0.46 0.48
0.67 0.61 0.55 0.49 0.48 0.51 0.54 0.54 0.51 0.55 0.60 0.63 0.65 0.69 0.71 0.71 0.68 0.61 0.58 0.64 0.64 0.58 0.55 0.56 0.55 0.50 0.47 0.44 0.46 0.48 0.51 0.52 0.52 0.50 0.48 0.45 0.45 0.47 0.44 0.41 0.40 0.38 0.38 0.40
0.75 0.66 0.56 0.54 0.57 0.60 0.61 0.60 0.59 0.60 0.68 0.69 0.65 0.64 0.64 0.66 0.67 0.62 0.57 0.59 0.64 0.59 0.53 0.51 0.50 0.49 0.44 0.41 0.43 0.45 0.45 0.45 0.46 0.45 0.45 0.49 0.49 0.48 0.44 0.41 0.42 0.42 0.43 0.44
0.87 0.79 0.70 0.64 0.60 0.59 0.62 0.66 0.68 0.65 0.70 0.76 0.74 0.66 0.64 0.60 0.54 0.55 0.59 0.62 0.63 0.62 0.54 0.50 0.49 0.51 0.47 0.44 0.46 0.45 0.43 0.43 0.41 0.41 0.43 0.45 0.44 0.44 0.43 0.43 0.44 0.43 0.43 0.45
0.95 0.90 0.85 0.72 0.59 0.57 0.63 0.70 0.71 0.68 0.64 0.66 0.68 0.65 0.62 0.59 0.54 0.52 0.57 0.63 0.66 0.63 0.60 0.57 0.55 0.54 0.54 0.51 0.51 0.51 0.51 0.52 0.51 0.48 0.45 0.43 0.40 0.40 0.38 0.36 0.39 0.41 0.41 0.41